Change the Weather History Date:

Sunday, October 14, 2012

  Actual Average Record
Temperature  
Mean Temperature 61 °F 51 °F  
Max Temperature 63 °F 61 °F 82 °F (1961)
Min Temperature 58 °F 41 °F 22 °F (1969)
Degree Days  
Heating Degree Days 4 14  
Month to date heating degree days 177 173  
Since 1 July heating degree days 522 513  
Cooling Degree Days 0 0  
Month to date cooling degree days 0 0  
Year to date cooling degree days 82 106  
Growing Degree Days 10 (Base 50)    
Moisture  
Dew Point 57 °F    
Average Humidity 86    
Maximum Humidity 93    
Minimum Humidity 78    
Precipitation  
Precipitation 0.68 in 0.14 in 0.99 in (1956)
Month to date precipitation 1.17 1.51  
Year to date precipitation 33.80 30.82  
Sea Level Pressure  
Sea Level Pressure 29.96 in    
Wind  
Wind Speed 11 mph (SSW)    
Max Wind Speed 21 mph    
Max Gust Speed 28 mph    
Visibility 8 miles    
Events Rain    
T = Trace of Precipitation, MM = Missing Value Source: NWS Daily Summary

Daily Weather History Graph

Daily Weather History Graph

Search for Another Location

Airport or City:

Trip Planner

Search our weather history database for the weather conditions in past years. The results will help you decide how hot, cold, wet, or windy it might be!

Date:

Astronomy

Oct. 14, 2012 Rise Set
Actual Time 7:29 AM PDT 6:25 PM PDT
Civil Twilight 6:58 AM PDT 6:55 PM PDT
Nautical Twilight 6:23 AM PDT 7:30 PM PDT
Astronomical Twilight 5:47 AM PDT 8:06 PM PDT
Moon 6:34 AM PDT (10/14) 5:47 PM PDT (10/14)
Length of Visible Light 11h 57m
Length of Day
10h 55m
Waning Crescent, 1% of the Moon is Illuminated
Oct 14
Waning Crescent
Oct 15
New
Oct 21
First Quarter
Oct 29
Full
Nov 6
Last Quarter

Hourly Weather History & Observations

Time (PDT) Temp. Dew Point Humidity Pressure Visibility Wind Dir Wind Speed Gust Speed Precip Events Conditions
12:54 AM 60.1 °F 55.9 °F 86% 30.12 in 10.0 mi SSW 8.1 mph - N/A   Unknown
1:54 AM 60.1 °F 55.9 °F 86% 30.09 in 10.0 mi South 8.1 mph - N/A   Unknown
2:54 AM 60.1 °F 55.0 °F 83% 30.09 in 10.0 mi SSW 5.8 mph - N/A   Unknown
3:54 AM 60.1 °F 55.0 °F 83% 30.06 in 10.0 mi SW 9.2 mph - N/A   Unknown
4:54 AM 60.1 °F 55.0 °F 83% 30.03 in 10.0 mi SSW 8.1 mph - N/A   Unknown
5:54 AM 60.1 °F 55.0 °F 83% 30.04 in 10.0 mi SSW 9.2 mph - N/A   Unknown
6:54 AM 60.1 °F 55.0 °F 83% 30.01 in 10.0 mi South 12.7 mph - N/A   Unknown
7:54 AM 60.1 °F 55.0 °F 83% 29.99 in 10.0 mi South 13.8 mph - N/A   Mostly Cloudy
8:54 AM 60.1 °F 55.9 °F 86% 29.98 in 10.0 mi South 16.1 mph 25.3 mph N/A   Mostly Cloudy
9:54 AM 61.0 °F 55.9 °F 83% 29.99 in 10.0 mi SSW 15.0 mph 27.6 mph N/A   Mostly Cloudy
10:54 AM 62.1 °F 55.9 °F 80% 29.99 in 10.0 mi SSW 13.8 mph - N/A   Overcast
11:54 AM 62.1 °F 55.9 °F 80% 29.98 in 10.0 mi South 11.5 mph - N/A   Overcast
12:54 PM 62.1 °F 55.9 °F 80% 29.98 in 10.0 mi South 15.0 mph - 0.00 in Rain Light Rain
1:54 PM 62.1 °F 57.0 °F 84% 29.96 in 10.0 mi South 13.8 mph - 0.00 in Rain Light Rain
2:54 PM 61.0 °F 57.0 °F 87% 29.94 in 8.0 mi South 13.8 mph - 0.02 in Rain Light Rain
3:54 PM 60.1 °F 57.9 °F 93% 29.94 in 4.0 mi SW 6.9 mph - 0.03 in Rain Rain
4:54 PM 60.1 °F 57.9 °F 93% 29.92 in 4.0 mi SSW 8.1 mph - 0.17 in Rain Light Rain
5:54 PM 60.1 °F 57.9 °F 93% 29.90 in 3.0 mi South 17.3 mph 23.0 mph 0.11 in Rain Rain
6:54 PM 60.1 °F 57.9 °F 93% 29.90 in 3.0 mi SSW 11.5 mph - 0.09 in Rain Rain
7:01 PM 59.0 °F 57.2 °F 94% 29.90 in 3.0 mi SSW 12.7 mph - 0.02 in Rain Light Rain
7:04 PM 59.0 °F 57.2 °F 94% 29.90 in 4.0 mi SSW 12.7 mph - 0.02 in Rain Light Rain
7:54 PM 59.0 °F 57.9 °F 96% 29.89 in 3.0 mi SSW 10.4 mph - 0.06 in Rain Light Rain
8:01 PM 59.0 °F 57.2 °F 94% 29.89 in 3.0 mi SSW 11.5 mph - 0.00 in Rain Light Rain
8:54 PM 59.0 °F 57.9 °F 96% 29.89 in 4.0 mi SSW 10.4 mph - 0.03 in Rain Light Rain
9:54 PM 59.0 °F 57.9 °F 96% 29.90 in 3.0 mi SSW 10.4 mph - 0.07 in Rain Rain
10:54 PM 59.0 °F 57.9 °F 96% 29.89 in 10.0 mi SSW 11.5 mph - 0.03 in Rain Light Rain
11:54 PM 59.0 °F 57.9 °F 96% 29.89 in 9.0 mi SSW 5.8 mph - 0.04 in Rain Light Rain